Terminal Aerodrome Forecast
Issued by NWS Newport/Morehead City, NC

Home | Current Version | Previous Version | Text Only | Print | Product List | Glossary On
Versions: 1 2 3 4 5 6 7 8 9 10 11 12 13 14 15 16 17 18 19 20 21 22 23 24
000
FTUS42 KMHX 220925 AAA
TAFEWN
TAF AMD
KEWN 220925Z 2209/2306 VRB03KT 1/2SM FG OVC002
     FM221300 VRB03KT 3SM BR BKN008
     FM221500 21006KT P6SM BKN015
     FM221630 21008KT P6SM SCT050=

USA.gov is the U.S. government's official web portal to all federal, state and local government web resources and services.